Regional Weather Roundup
Issued by NWS Cleveland, OH

Home | Current Version | Previous Version | Graphics & Text | Print | Product List | Glossary On
Versions: 1 2 3 4 5 6 7 8 9 10 11 12 13 14 15 16 17 18 19 20 21 22 23 24 25 26 27 28 29 30 31 32 33 34 35 36 37 38 39 40 41 42 43 44 45 46 47 48 49 50
000
ASUS41 KCLE 032310
RWRCLE
OHIO REGIONAL WEATHER ROUNDUP
NATIONAL WEATHER SERVICE CLEVELAND, OH
700 PM EDT THU SEP 03 2015

NOTE: "FAIR" INDICATES FEW OR NO CLOUDS BELOW 12,000 FEET WITH NO
SIGNIFICANT WEATHER AND/OR OBSTRUCTIONS TO VISIBILITY.

OHZ001>008-015>018-024>027-034-035-043-044-040000-
   NORTHWEST OHIO

CITY           SKY/WX    TMP DP  RH WIND       PRES   REMARKS
DEFIANCE       SUNNY     89  66  46 W8        29.90S HX  91
FINDLAY        MOSUNNY   86  69  56 SW5       29.91S HX  90
TOLEDO EXPRESS PTSUNNY   85  67  54 SW6       29.90R
TOLEDO EXEC    PTSUNNY   87  66  49 SW7       29.91R
LIMA           MOSUNNY   85  68  56 W8        29.93S
$$

OHZ009>014-019>023-028>033-038-089-040000-
   NORTHEAST OHIO

CITY           SKY/WX    TMP DP  RH WIND       PRES   REMARKS
CLE-HOPKINS    CLOUDY    76  65  68 SE7       29.99R THUNDER
CLE-LAKEFRONT  MOCLDY    80  66  62 NE7       29.96R
CUY CO. ARPT   CLOUDY    79  68  69 SE6       30.00R
LORAIN-ELYRIA  PTSUNNY   77  66  68 E8        29.97R
ASHTABULA      PTCLDY    75  68  78 VRB5      29.98F
AKRON-CANTON   LGT RAIN  70  66  87 CALM      29.98F
WOOSTER        CLOUDY    70  67  90 CALM      29.99F
MANSFIELD      CLOUDY    78  67  68 SE7       29.98R
YOUNGSTOWN     MOCLDY    76  66  71 SW10      29.97S THUNDER
$$

OHZ042-051>053-060>062-070>072-077>081-040000-
  SOUTHWEST OHIO

CITY           SKY/WX    TMP DP  RH WIND       PRES   REMARKS
CINC-COVINGTON MOSUNNY   88  65  46 W6        29.95S HX  90
CINC-LUNKEN    MOSUNNY   88  65  46 W5        29.93S HX  90
HAMILTON       SUNNY     89  65  44 VRB6      29.94S HX  91
DAYTON         MOSUNNY   86  65  49 W9        29.95S
WRIGHT-PAT AFB MOSUNNY   86  65  49 W7        29.93F
DAYTON GENERAL SUNNY     87  64  46 SW6       29.94F
WILMINGTON     SUNNY     86  65  49 NW7       29.95S
$$

OHZ036-037-039>041-045>050-054>059-063>069-073>076-082>088-040000-
  CENTRAL AND SOUTHEAST OHIO

CITY           SKY/WX    TMP DP  RH WIND       PRES   REMARKS
COLUMBUS       MOSUNNY   79  67  66 E3        29.93F
OSU AIRPORT    MOSUNNY   82  67  60 S9        29.94S
BOLTON FIELD   SUNNY     84  72  65 S5        29.94F
RICKENBACK AFB MOSUNNY   84  69  60 S5        29.93F
NEWARK         TSTM      74  66  76 E8        29.96F
MARION         MOSUNNY   81  72  74 SE6       29.95R
LANCASTER      MOSUNNY   84  68  58 S3        29.96R
ZANESVILLE     MOCLDY    73  67  81 CALM      29.97F
NEW PHILLY     CLOUDY    72  69  90 CALM      29.98F
$$


USA.gov is the U.S. government's official web portal to all federal, state and local government web resources and services.